Year,Month,Day,Hour,Minute,Value (Times are PST for temperature in C)
2014,03,21,00,00,3.60
2014,03,21,00,01,3.60
2014,03,21,00,02,3.60
2014,03,21,00,03,3.60
2014,03,21,00,04,3.60
2014,03,21,00,05,3.60
2014,03,21,00,06,3.60
2014,03,21,00,07,3.50
2014,03,21,00,08,3.50
2014,03,21,00,09,3.50
2014,03,21,00,10,3.50
2014,03,21,00,11,3.50
2014,03,21,00,12,3.50
2014,03,21,00,13,3.50
2014,03,21,00,14,3.50
2014,03,21,00,15,3.50
2014,03,21,00,16,3.50
2014,03,21,00,17,3.50
2014,03,21,00,18,3.50
2014,03,21,00,19,3.50
2014,03,21,00,20,3.50
2014,03,21,00,21,3.50
2014,03,21,00,22,3.50
2014,03,21,00,23,3.50
2014,03,21,00,24,3.50
2014,03,21,00,25,3.50
2014,03,21,00,26,3.40
2014,03,21,00,27,3.40
2014,03,21,00,28,3.40
2014,03,21,00,29,3.40
2014,03,21,00,30,3.40
2014,03,21,00,31,3.50
2014,03,21,00,32,3.50
2014,03,21,00,33,3.50
2014,03,21,00,34,3.50
2014,03,21,00,35,3.50
2014,03,21,00,36,3.50
2014,03,21,00,37,3.50
2014,03,21,00,38,3.50
2014,03,21,00,39,3.50
2014,03,21,00,40,3.50
2014,03,21,00,41,3.50
2014,03,21,00,42,3.50
2014,03,21,00,43,3.50
2014,03,21,00,44,3.50
2014,03,21,00,45,3.40
2014,03,21,00,46,3.40
2014,03,21,00,47,3.40
2014,03,21,00,48,3.40
2014,03,21,00,49,3.40
2014,03,21,00,50,3.40
2014,03,21,00,51,3.40
2014,03,21,00,52,3.40
2014,03,21,00,53,3.40
2014,03,21,00,54,3.40
2014,03,21,00,55,3.40
2014,03,21,00,56,3.40
2014,03,21,00,57,3.40
2014,03,21,00,58,3.40
2014,03,21,00,59,3.40
2014,03,21,01,00,3.40
2014,03,21,01,01,3.40
2014,03,21,01,02,3.40
2014,03,21,01,03,3.50
2014,03,21,01,04,3.50
2014,03,21,01,05,3.50
2014,03,21,01,06,3.50
2014,03,21,01,07,3.50
2014,03,21,01,08,3.50
2014,03,21,01,09,3.50
2014,03,21,01,10,3.50
2014,03,21,01,11,3.50
2014,03,21,01,12,3.50
2014,03,21,01,13,3.50
2014,03,21,01,14,3.50
2014,03,21,01,15,3.50
2014,03,21,01,16,3.50
2014,03,21,01,17,3.50
2014,03,21,01,18,3.50
2014,03,21,01,19,3.40
2014,03,21,01,20,3.40
2014,03,21,01,21,3.40
2014,03,21,01,22,3.40
2014,03,21,01,23,3.40
2014,03,21,01,24,3.40
2014,03,21,01,25,3.40
2014,03,21,01,26,3.40
2014,03,21,01,27,3.40
2014,03,21,01,28,3.30
2014,03,21,01,29,3.30
2014,03,21,01,30,3.30
2014,03,21,01,31,3.30
2014,03,21,01,32,3.30
2014,03,21,01,33,3.30
2014,03,21,01,34,3.30
2014,03,21,01,35,3.30
2014,03,21,01,36,3.20
2014,03,21,01,37,3.20
2014,03,21,01,38,3.20
2014,03,21,01,39,3.20
2014,03,21,01,40,3.10
2014,03,21,01,41,3.10
2014,03,21,01,42,3.10
2014,03,21,01,43,3.10
2014,03,21,01,44,3.10
2014,03,21,01,45,3.10
2014,03,21,01,46,3.10
2014,03,21,01,47,3.00
2014,03,21,01,48,2.90
2014,03,21,01,49,2.90
2014,03,21,01,50,2.80
2014,03,21,01,51,2.70
2014,03,21,01,52,2.70
2014,03,21,01,53,2.50
2014,03,21,01,54,2.40
2014,03,21,01,55,2.30
2014,03,21,01,56,2.20
2014,03,21,01,57,2.20
2014,03,21,01,58,2.10
2014,03,21,01,59,2.00
2014,03,21,02,00,1.90
2014,03,21,02,01,1.90
2014,03,21,02,02,1.80
2014,03,21,02,03,1.80
2014,03,21,02,04,1.80
2014,03,21,02,05,1.70
2014,03,21,02,06,1.70
2014,03,21,02,07,1.70
2014,03,21,02,08,1.70
2014,03,21,02,09,1.70
2014,03,21,02,10,1.60
2014,03,21,02,11,1.60
2014,03,21,02,12,1.60
2014,03,21,02,13,1.50
2014,03,21,02,14,1.50
2014,03,21,02,15,1.40
2014,03,21,02,16,1.40
2014,03,21,02,17,1.40
2014,03,21,02,18,1.30
2014,03,21,02,19,1.30
2014,03,21,02,20,1.30
2014,03,21,02,21,1.30
2014,03,21,02,22,1.30
2014,03,21,02,23,1.30
2014,03,21,02,24,1.30
2014,03,21,02,25,1.30
2014,03,21,02,26,1.30
2014,03,21,02,27,1.30
2014,03,21,02,28,1.30
2014,03,21,02,29,1.30
2014,03,21,02,30,1.20
2014,03,21,02,31,1.20
2014,03,21,02,32,1.20
2014,03,21,02,33,1.10
2014,03,21,02,34,1.10
2014,03,21,02,35,1.10
2014,03,21,02,36,1.10
2014,03,21,02,37,1.10
2014,03,21,02,38,1.10
2014,03,21,02,39,1.10
2014,03,21,02,40,1.10
2014,03,21,02,41,1.00
2014,03,21,02,42,1.00
2014,03,21,02,43,0.90
2014,03,21,02,44,0.90
2014,03,21,02,45,0.90
2014,03,21,02,46,0.90
2014,03,21,02,47,0.90
2014,03,21,02,48,0.90
2014,03,21,02,49,0.90
2014,03,21,02,50,0.90
2014,03,21,02,51,0.80
2014,03,21,02,52,0.90
2014,03,21,02,53,0.90
2014,03,21,02,54,0.90
2014,03,21,02,55,0.90
2014,03,21,02,56,0.90
2014,03,21,02,57,0.90
2014,03,21,02,58,0.90
2014,03,21,02,59,0.90
2014,03,21,03,00,0.90
2014,03,21,03,01,0.80
2014,03,21,03,02,0.80
2014,03,21,03,03,0.80
2014,03,21,03,04,0.80
2014,03,21,03,05,0.80
2014,03,21,03,06,0.90
2014,03,21,03,07,0.90
2014,03,21,03,08,0.90
2014,03,21,03,09,1.00
2014,03,21,03,10,1.00
2014,03,21,03,11,1.00
2014,03,21,03,12,1.00
2014,03,21,03,13,1.00
2014,03,21,03,14,1.00
2014,03,21,03,15,1.00
2014,03,21,03,16,1.10
2014,03,21,03,17,1.10
2014,03,21,03,18,1.10
2014,03,21,03,19,1.10
2014,03,21,03,20,1.10
2014,03,21,03,21,1.10
2014,03,21,03,22,1.00
2014,03,21,03,23,1.00
2014,03,21,03,24,1.00
2014,03,21,03,25,0.90
2014,03,21,03,26,0.90
2014,03,21,03,27,0.90
2014,03,21,03,28,0.90
2014,03,21,03,29,0.80
2014,03,21,03,30,0.80
2014,03,21,03,31,0.80
2014,03,21,03,32,0.80
2014,03,21,03,33,0.80
2014,03,21,03,34,0.80
2014,03,21,03,35,0.80
2014,03,21,03,36,0.90
2014,03,21,03,37,1.00
2014,03,21,03,38,1.00
2014,03,21,03,39,1.10
2014,03,21,03,40,1.10
2014,03,21,03,41,1.20
2014,03,21,03,42,1.20
2014,03,21,03,43,1.30
2014,03,21,03,44,1.30
2014,03,21,03,45,1.30
2014,03,21,03,46,1.30
2014,03,21,03,47,1.20
2014,03,21,03,48,1.20
2014,03,21,03,49,1.20
2014,03,21,03,50,1.20
2014,03,21,03,51,1.20
2014,03,21,03,52,1.20
2014,03,21,03,53,1.30
2014,03,21,03,54,1.30
2014,03,21,03,55,1.30
2014,03,21,03,56,1.30
2014,03,21,03,57,1.30
2014,03,21,03,58,1.30
2014,03,21,03,59,1.30
2014,03,21,04,00,1.20
2014,03,21,04,01,1.20
2014,03,21,04,02,1.20
2014,03,21,04,03,1.20
2014,03,21,04,04,1.20
2014,03,21,04,05,1.20
2014,03,21,04,06,1.20
2014,03,21,04,07,1.10
2014,03,21,04,08,1.10
2014,03,21,04,09,1.00
2014,03,21,04,10,1.00
2014,03,21,04,11,0.90
2014,03,21,04,12,0.90
2014,03,21,04,13,0.80
2014,03,21,04,14,0.80
2014,03,21,04,15,0.80
2014,03,21,04,16,0.80
2014,03,21,04,17,0.80
2014,03,21,04,18,0.90
2014,03,21,04,19,0.90
2014,03,21,04,20,0.90
2014,03,21,04,21,1.00
2014,03,21,04,22,1.00
2014,03,21,04,23,1.00
2014,03,21,04,24,1.00
2014,03,21,04,25,1.00
2014,03,21,04,26,0.90
2014,03,21,04,27,0.90
2014,03,21,04,28,0.90
2014,03,21,04,29,0.90
2014,03,21,04,30,0.80
2014,03,21,04,31,0.90
2014,03,21,04,32,1.00
2014,03,21,04,33,1.00
2014,03,21,04,34,1.10
2014,03,21,04,35,1.10
2014,03,21,04,36,1.20
2014,03,21,04,37,1.30
2014,03,21,04,38,1.30
2014,03,21,04,39,1.30
2014,03,21,04,40,1.30
2014,03,21,04,41,1.30
2014,03,21,04,42,1.30
2014,03,21,04,43,1.30
2014,03,21,04,44,1.30
2014,03,21,04,45,1.40
2014,03,21,04,46,1.40
2014,03,21,04,47,1.40
2014,03,21,04,48,1.50
2014,03,21,04,49,1.50
2014,03,21,04,50,1.50
2014,03,21,04,51,1.60
2014,03,21,04,52,1.60
2014,03,21,04,53,1.60
2014,03,21,04,54,1.60
2014,03,21,04,55,1.60
2014,03,21,04,56,1.50
2014,03,21,04,57,1.50
2014,03,21,04,58,1.60
2014,03,21,04,59,1.60
2014,03,21,05,00,1.50
2014,03,21,05,01,1.50
2014,03,21,05,02,1.50
2014,03,21,05,03,1.50
2014,03,21,05,04,1.50
2014,03,21,05,05,1.40
2014,03,21,05,06,1.40
2014,03,21,05,07,1.30
2014,03,21,05,08,1.30
2014,03,21,05,09,1.30
2014,03,21,05,10,1.30
2014,03,21,05,11,1.30
2014,03,21,05,12,1.30
2014,03,21,05,13,1.30
2014,03,21,05,14,1.30
2014,03,21,05,15,1.30
2014,03,21,05,16,1.30
2014,03,21,05,17,1.30
2014,03,21,05,18,1.30
2014,03,21,05,19,1.20
2014,03,21,05,20,1.20
2014,03,21,05,21,1.10
2014,03,21,05,22,1.10
2014,03,21,05,23,1.10
2014,03,21,05,24,1.00
2014,03,21,05,25,1.00
2014,03,21,05,26,0.90
2014,03,21,05,27,0.90
2014,03,21,05,28,0.90
2014,03,21,05,29,0.80
2014,03,21,05,30,0.80
2014,03,21,05,31,0.80
2014,03,21,05,32,0.80
2014,03,21,05,33,0.80
2014,03,21,05,34,0.80
2014,03,21,05,35,0.80
2014,03,21,05,36,0.80
2014,03,21,05,37,0.80
2014,03,21,05,38,0.80
2014,03,21,05,39,0.90
2014,03,21,05,40,0.90
2014,03,21,05,41,0.90
2014,03,21,05,42,1.00
2014,03,21,05,43,1.00
2014,03,21,05,44,1.00
2014,03,21,05,45,1.10
2014,03,21,05,46,1.10
2014,03,21,05,47,1.20
2014,03,21,05,48,1.20
2014,03,21,05,49,1.30
2014,03,21,05,50,1.30
2014,03,21,05,51,1.30
2014,03,21,05,52,1.20
2014,03,21,05,53,1.20
2014,03,21,05,54,1.20
2014,03,21,05,55,1.20
2014,03,21,05,56,1.20
2014,03,21,05,57,1.20
2014,03,21,05,58,1.20
2014,03,21,05,59,1.10
2014,03,21,06,00,1.10
2014,03,21,06,01,1.10
2014,03,21,06,02,1.10
2014,03,21,06,03,1.00
2014,03,21,06,04,1.00
2014,03,21,06,05,1.10
2014,03,21,06,06,1.10
2014,03,21,06,07,1.10
2014,03,21,06,08,1.10
2014,03,21,06,09,1.10
2014,03,21,06,10,1.20
2014,03,21,06,11,1.20
2014,03,21,06,12,1.20
2014,03,21,06,13,1.20
2014,03,21,06,14,1.20
2014,03,21,06,15,1.20
2014,03,21,06,16,1.20
2014,03,21,06,17,1.20
2014,03,21,06,18,1.20
2014,03,21,06,19,1.20
2014,03,21,06,20,1.20
2014,03,21,06,21,1.20
2014,03,21,06,22,1.30
2014,03,21,06,23,1.30
2014,03,21,06,24,1.30
2014,03,21,06,25,1.30
2014,03,21,06,26,1.30
2014,03,21,06,27,1.30
2014,03,21,06,28,1.40
2014,03,21,06,29,1.40
2014,03,21,06,30,1.40
2014,03,21,06,31,1.40
2014,03,21,06,32,1.40
2014,03,21,06,33,1.40
2014,03,21,06,34,1.40
2014,03,21,06,35,1.40
2014,03,21,06,36,1.40
2014,03,21,06,37,1.40
2014,03,21,06,38,1.50
2014,03,21,06,39,1.50
2014,03,21,06,40,1.50
2014,03,21,06,41,1.60
2014,03,21,06,42,1.60
2014,03,21,06,43,1.70
2014,03,21,06,44,1.70
2014,03,21,06,45,1.70
2014,03,21,06,46,1.80
2014,03,21,06,47,1.80
2014,03,21,06,48,1.80
2014,03,21,06,49,1.80
2014,03,21,06,50,1.80
2014,03,21,06,51,1.80
2014,03,21,06,52,1.80
2014,03,21,06,53,1.90
2014,03,21,06,54,1.90
2014,03,21,06,55,1.90
2014,03,21,06,56,2.00
2014,03,21,06,57,2.00
2014,03,21,06,58,2.00
2014,03,21,06,59,2.10
2014,03,21,07,00,2.10
2014,03,21,07,01,2.10
2014,03,21,07,02,2.20
2014,03,21,07,03,2.20
2014,03,21,07,04,2.20
2014,03,21,07,05,2.20
2014,03,21,07,06,2.20
2014,03,21,07,07,2.20
2014,03,21,07,08,2.20
2014,03,21,07,09,2.10
2014,03,21,07,10,2.10
2014,03,21,07,11,2.10
2014,03,21,07,12,2.10
2014,03,21,07,13,2.00
2014,03,21,07,14,2.00
2014,03,21,07,15,2.00
2014,03,21,07,16,1.90
2014,03,21,07,17,1.90
2014,03,21,07,18,1.80
2014,03,21,07,19,1.80
2014,03,21,07,20,1.80
2014,03,21,07,21,1.80
2014,03,21,07,22,1.80
2014,03,21,07,23,1.80
2014,03,21,07,24,1.80
2014,03,21,07,25,1.70
2014,03,21,07,26,1.70
2014,03,21,07,27,1.70
2014,03,21,07,28,1.70
2014,03,21,07,29,1.60
2014,03,21,07,30,1.60
2014,03,21,07,31,1.50
2014,03,21,07,32,1.50
2014,03,21,07,33,1.50
2014,03,21,07,34,1.40
2014,03,21,07,35,1.40
2014,03,21,07,36,1.40
2014,03,21,07,37,1.40
2014,03,21,07,38,1.30
2014,03,21,07,39,1.30
2014,03,21,07,40,1.30
2014,03,21,07,41,1.30
2014,03,21,07,42,1.40
2014,03,21,07,43,1.40
2014,03,21,07,44,1.40
2014,03,21,07,45,1.40
2014,03,21,07,46,1.40
2014,03,21,07,47,1.50
2014,03,21,07,48,1.50
2014,03,21,07,49,1.50
2014,03,21,07,50,1.60
2014,03,21,07,51,1.60
2014,03,21,07,52,1.60
2014,03,21,07,53,1.70
2014,03,21,07,54,1.70
2014,03,21,07,55,1.80
2014,03,21,07,56,1.80
2014,03,21,07,57,1.80
2014,03,21,07,58,1.80
2014,03,21,07,59,1.90
2014,03,21,08,00,1.90
2014,03,21,08,01,1.90
2014,03,21,08,02,2.00
2014,03,21,08,03,2.00
2014,03,21,08,04,2.10
2014,03,21,08,05,2.10
2014,03,21,08,06,2.20
2014,03,21,08,07,2.20
2014,03,21,08,08,2.20
2014,03,21,08,09,2.20
2014,03,21,08,10,2.30
2014,03,21,08,11,2.30
2014,03,21,08,12,2.30
2014,03,21,08,13,2.30
2014,03,21,08,14,2.40
2014,03,21,08,15,2.40
2014,03,21,08,16,2.50
2014,03,21,08,17,2.50
2014,03,21,08,18,2.50
2014,03,21,08,19,2.50
2014,03,21,08,20,2.50
2014,03,21,08,21,2.50
2014,03,21,08,22,2.50
2014,03,21,08,23,2.50
2014,03,21,08,24,2.50
2014,03,21,08,25,2.50
2014,03,21,08,26,2.50
2014,03,21,08,27,2.50
2014,03,21,08,28,2.60
2014,03,21,08,29,2.60
2014,03,21,08,30,2.60
2014,03,21,08,31,2.50
2014,03,21,08,32,2.50
2014,03,21,08,33,2.50
2014,03,21,08,34,2.50
2014,03,21,08,35,2.50
2014,03,21,08,36,2.50
2014,03,21,08,37,2.50
2014,03,21,08,38,2.60
2014,03,21,08,39,2.60
2014,03,21,08,40,2.60
2014,03,21,08,41,2.60
2014,03,21,08,42,2.60
2014,03,21,08,43,2.60
2014,03,21,08,44,2.70
2014,03,21,08,45,2.70
2014,03,21,08,46,2.70
2014,03,21,08,47,2.70
2014,03,21,08,48,2.80
2014,03,21,08,49,2.80
2014,03,21,08,50,2.90
2014,03,21,08,51,2.90
2014,03,21,08,52,3.00
2014,03,21,08,53,3.10
2014,03,21,08,54,3.10
2014,03,21,08,55,3.20
2014,03,21,08,56,3.30
2014,03,21,08,57,3.30
2014,03,21,08,58,3.40
2014,03,21,08,59,3.50
2014,03,21,09,00,3.50
2014,03,21,09,01,3.60
2014,03,21,09,02,3.60
2014,03,21,09,03,3.70
2014,03,21,09,04,3.70
2014,03,21,09,05,3.80
2014,03,21,09,06,3.80
2014,03,21,09,07,3.80
2014,03,21,09,08,3.90
2014,03,21,09,09,3.90
2014,03,21,09,10,3.90
2014,03,21,09,11,4.00
2014,03,21,09,12,4.00
2014,03,21,09,13,4.00
2014,03,21,09,14,4.00
2014,03,21,09,15,4.00
2014,03,21,09,16,4.00
2014,03,21,09,17,4.10
2014,03,21,09,18,4.10
2014,03,21,09,19,4.20
2014,03,21,09,20,4.20
2014,03,21,09,21,4.30
2014,03,21,09,22,4.40
2014,03,21,09,23,4.50
2014,03,21,09,24,4.60
2014,03,21,09,25,4.60
2014,03,21,09,26,4.70
2014,03,21,09,27,4.80
2014,03,21,09,28,4.80
2014,03,21,09,29,4.80
2014,03,21,09,30,4.80
2014,03,21,09,31,4.80
2014,03,21,09,32,4.80
2014,03,21,09,33,4.80
2014,03,21,09,34,4.90
2014,03,21,09,35,4.90
2014,03,21,09,36,4.90
2014,03,21,09,37,5.00
2014,03,21,09,38,5.10
2014,03,21,09,39,5.10
2014,03,21,09,40,5.20
2014,03,21,09,41,5.30
2014,03,21,09,42,5.20
2014,03,21,09,43,5.20
2014,03,21,09,44,5.20
2014,03,21,09,45,5.10
2014,03,21,09,46,5.10
2014,03,21,09,47,5.20
2014,03,21,09,48,5.20
2014,03,21,09,49,5.20
2014,03,21,09,50,5.20
2014,03,21,09,51,5.30
2014,03,21,09,52,5.30
2014,03,21,09,53,5.30
2014,03,21,09,54,5.30
2014,03,21,09,55,5.40
2014,03,21,09,56,5.40
2014,03,21,09,57,5.40
2014,03,21,09,58,5.50
2014,03,21,09,59,5.50
2014,03,21,10,00,5.60
2014,03,21,10,01,5.60
2014,03,21,10,02,5.70
2014,03,21,10,03,5.70
2014,03,21,10,04,5.70
2014,03,21,10,05,5.70
2014,03,21,10,06,5.80
2014,03,21,10,07,5.70
2014,03,21,10,08,5.70
2014,03,21,10,09,5.80
2014,03,21,10,10,5.80
2014,03,21,10,11,5.70
2014,03,21,10,12,5.70
2014,03,21,10,13,5.60
2014,03,21,10,14,5.60
2014,03,21,10,15,5.50
2014,03,21,10,16,5.50
2014,03,21,10,17,5.50
2014,03,21,10,18,5.50
2014,03,21,10,19,5.50
2014,03,21,10,20,5.60
2014,03,21,10,21,5.60
2014,03,21,10,22,5.70
2014,03,21,10,23,5.70
2014,03,21,10,24,5.70
2014,03,21,10,25,5.80
2014,03,21,10,26,5.80
2014,03,21,10,27,5.90
2014,03,21,10,28,6.00
2014,03,21,10,29,6.10
2014,03,21,10,30,6.10
2014,03,21,10,31,6.20
2014,03,21,10,32,6.20
2014,03,21,10,33,6.20
2014,03,21,10,34,6.20
2014,03,21,10,35,6.20
2014,03,21,10,36,6.20
2014,03,21,10,37,6.20
2014,03,21,10,38,6.10
2014,03,21,10,39,6.10
2014,03,21,10,40,6.10
2014,03,21,10,41,6.20
2014,03,21,10,42,6.20
2014,03,21,10,43,6.30
2014,03,21,10,44,6.30
2014,03,21,10,45,6.30
2014,03,21,10,46,6.30
2014,03,21,10,47,6.30
2014,03,21,10,48,6.30
2014,03,21,10,49,6.30
2014,03,21,10,50,6.30
2014,03,21,10,51,6.40
2014,03,21,10,52,6.40
2014,03,21,10,53,6.40
2014,03,21,10,54,6.40
2014,03,21,10,55,6.40
2014,03,21,10,56,6.50
2014,03,21,10,57,6.60
2014,03,21,10,58,6.60
2014,03,21,10,59,6.70
2014,03,21,11,00,6.70
2014,03,21,11,01,6.70
2014,03,21,11,02,6.70
2014,03,21,11,03,6.70
2014,03,21,11,04,6.70
2014,03,21,11,05,6.60
2014,03,21,11,06,6.60
2014,03,21,11,07,6.60
2014,03,21,11,08,6.60
2014,03,21,11,09,6.60
2014,03,21,11,10,6.40
2014,03,21,11,11,6.60
2014,03,21,11,12,6.60
2014,03,21,11,13,6.60
2014,03,21,11,14,6.60
2014,03,21,11,15,6.70
2014,03,21,11,16,6.80
2014,03,21,11,17,6.90
2014,03,21,11,18,7.00
2014,03,21,11,19,7.10
2014,03,21,11,20,7.10
2014,03,21,11,21,7.20
2014,03,21,11,22,7.20
2014,03,21,11,23,7.10
2014,03,21,11,24,7.00
2014,03,21,11,25,7.00
2014,03,21,11,26,6.90
2014,03,21,11,27,6.80
2014,03,21,11,28,6.80
2014,03,21,11,29,6.70
2014,03,21,11,30,6.70
2014,03,21,11,31,6.70
2014,03,21,11,32,6.80
2014,03,21,11,33,6.80
2014,03,21,11,34,6.80
2014,03,21,11,35,6.80
2014,03,21,11,36,6.80
2014,03,21,11,37,6.90
2014,03,21,11,38,7.10
2014,03,21,11,39,7.20
2014,03,21,11,40,7.20
2014,03,21,11,41,7.10
2014,03,21,11,42,7.00
2014,03,21,11,43,7.10
2014,03,21,11,44,7.10
2014,03,21,11,45,7.20
2014,03,21,11,46,7.20
2014,03,21,11,47,7.30
2014,03,21,11,48,7.30
2014,03,21,11,49,7.30
2014,03,21,11,50,7.30
2014,03,21,11,51,7.30
2014,03,21,11,52,7.40
2014,03,21,11,53,7.50
2014,03,21,11,54,7.60
2014,03,21,11,55,7.60
2014,03,21,11,56,7.70
2014,03,21,11,57,7.70
2014,03,21,11,58,7.70
2014,03,21,11,59,7.80
2014,03,21,12,00,7.80
2014,03,21,12,01,7.80
2014,03,21,12,02,7.90
2014,03,21,12,03,7.90
2014,03,21,12,04,7.80
2014,03,21,12,05,7.80
2014,03,21,12,06,7.80
2014,03,21,12,07,7.80
2014,03,21,12,08,7.80
2014,03,21,12,09,7.80
2014,03,21,12,10,7.80
2014,03,21,12,11,7.80
2014,03,21,12,12,7.80
2014,03,21,12,13,7.80
2014,03,21,12,14,7.90
2014,03,21,12,15,7.90
2014,03,21,12,16,7.90
2014,03,21,12,17,7.90
2014,03,21,12,18,7.90
2014,03,21,12,19,7.90
2014,03,21,12,20,7.90
2014,03,21,12,21,7.80
2014,03,21,12,22,7.80
2014,03,21,12,23,7.80
2014,03,21,12,24,7.70
2014,03,21,12,25,7.60
2014,03,21,12,26,7.70
2014,03,21,12,27,7.70
2014,03,21,12,28,7.80
2014,03,21,12,29,7.80
2014,03,21,12,30,7.90
2014,03,21,12,31,7.90
2014,03,21,12,32,8.00
2014,03,21,12,33,8.10
2014,03,21,12,34,8.10
2014,03,21,12,35,8.10
2014,03,21,12,36,8.20
2014,03,21,12,37,8.20
2014,03,21,12,38,8.30
2014,03,21,12,39,8.30
2014,03,21,12,40,8.30
2014,03,21,12,41,8.20
2014,03,21,12,42,8.20
2014,03,21,12,43,8.20
2014,03,21,12,44,8.20
2014,03,21,12,45,8.20
2014,03,21,12,46,8.20
2014,03,21,12,47,8.20
2014,03,21,12,48,8.20
2014,03,21,12,49,8.20
2014,03,21,12,50,8.20
2014,03,21,12,51,8.30
2014,03,21,12,52,8.30
2014,03,21,12,53,8.30
2014,03,21,12,54,8.30
2014,03,21,12,55,8.30
2014,03,21,12,56,8.20
2014,03,21,12,57,8.10
2014,03,21,12,58,8.10
2014,03,21,12,59,8.10
2014,03,21,13,00,8.10
2014,03,21,13,01,8.10
2014,03,21,13,02,8.20
2014,03,21,13,03,8.20
2014,03,21,13,04,8.20
2014,03,21,13,05,8.20
2014,03,21,13,06,8.20
2014,03,21,13,07,8.10
2014,03,21,13,08,8.20
2014,03,21,13,09,8.10
2014,03,21,13,10,8.10
2014,03,21,13,11,8.00
2014,03,21,13,12,7.90
2014,03,21,13,13,7.80
2014,03,21,13,14,7.90
2014,03,21,13,15,7.90
2014,03,21,13,16,8.00
2014,03,21,13,17,8.00
2014,03,21,13,18,8.10
2014,03,21,13,19,8.20
2014,03,21,13,20,8.20
2014,03,21,13,21,8.20
2014,03,21,13,22,8.20
2014,03,21,13,23,8.20
2014,03,21,13,24,8.20
2014,03,21,13,25,8.20
2014,03,21,13,26,8.20
2014,03,21,13,27,8.30
2014,03,21,13,28,8.40
2014,03,21,13,29,8.50
2014,03,21,13,30,8.50
2014,03,21,13,31,8.40
2014,03,21,13,32,8.50
2014,03,21,13,33,8.50
2014,03,21,13,34,8.50
2014,03,21,13,35,8.40
2014,03,21,13,36,8.30
2014,03,21,13,37,8.20
2014,03,21,13,38,8.20
2014,03,21,13,39,8.30
2014,03,21,13,40,8.30
2014,03,21,13,41,8.30
2014,03,21,13,42,8.40
2014,03,21,13,43,8.40
2014,03,21,13,44,8.30
2014,03,21,13,45,8.40
2014,03,21,13,46,8.40
2014,03,21,13,47,8.30
2014,03,21,13,48,8.30
2014,03,21,13,49,8.20
2014,03,21,13,50,8.20
2014,03,21,13,51,8.20
2014,03,21,13,52,8.10
2014,03,21,13,53,8.10
2014,03,21,13,54,8.10
2014,03,21,13,55,8.10
2014,03,21,13,56,8.20
2014,03,21,13,57,8.30
2014,03,21,13,58,8.40
2014,03,21,13,59,8.40
2014,03,21,14,00,8.50
2014,03,21,14,01,8.60
2014,03,21,14,02,8.60
2014,03,21,14,03,8.60
2014,03,21,14,04,8.50
2014,03,21,14,05,8.50
2014,03,21,14,06,8.40
2014,03,21,14,07,8.40
2014,03,21,14,08,8.50
2014,03,21,14,09,8.50
2014,03,21,14,10,8.50
2014,03,21,14,11,8.50
2014,03,21,14,12,8.60
2014,03,21,14,13,8.70
2014,03,21,14,14,8.70
2014,03,21,14,15,8.80
2014,03,21,14,16,8.80
2014,03,21,14,17,8.80
2014,03,21,14,18,8.90
2014,03,21,14,19,8.90
2014,03,21,14,20,9.00
2014,03,21,14,21,9.00
2014,03,21,14,22,8.90
2014,03,21,14,23,8.90
2014,03,21,14,24,8.80
2014,03,21,14,25,8.70
2014,03,21,14,26,8.70
2014,03,21,14,27,8.70
2014,03,21,14,28,8.70
2014,03,21,14,29,8.70
2014,03,21,14,30,8.70
2014,03,21,14,31,8.80
2014,03,21,14,32,8.80
2014,03,21,14,33,8.70
2014,03,21,14,34,8.70
2014,03,21,14,35,8.70
2014,03,21,14,36,8.70
2014,03,21,14,37,8.70
2014,03,21,14,38,8.80
2014,03,21,14,39,8.80
2014,03,21,14,40,8.90
2014,03,21,14,41,9.00
2014,03,21,14,42,9.10
2014,03,21,14,43,9.10
2014,03,21,14,44,9.00
2014,03,21,14,45,8.90
2014,03,21,14,46,8.90
2014,03,21,14,47,8.70
2014,03,21,14,48,8.60
2014,03,21,14,49,8.60
2014,03,21,14,50,8.70
2014,03,21,14,51,8.80
2014,03,21,14,52,8.90
2014,03,21,14,53,8.90
2014,03,21,14,54,9.00
2014,03,21,14,55,9.00
2014,03,21,14,56,8.90
2014,03,21,14,57,8.90
2014,03,21,14,58,8.80
2014,03,21,14,59,8.90
2014,03,21,15,00,9.00
2014,03,21,15,01,9.10
2014,03,21,15,02,9.20
2014,03,21,15,03,9.10
2014,03,21,15,04,9.00
2014,03,21,15,05,8.90
2014,03,21,15,06,9.00
2014,03,21,15,07,9.10
2014,03,21,15,08,9.20
2014,03,21,15,09,9.30
2014,03,21,15,10,9.40
2014,03,21,15,11,9.40
2014,03,21,15,12,9.40
2014,03,21,15,13,9.40
2014,03,21,15,14,9.30
2014,03,21,15,15,9.20
2014,03,21,15,16,9.00
2014,03,21,15,17,9.00
2014,03,21,15,18,9.10
2014,03,21,15,19,9.20
2014,03,21,15,20,9.20
2014,03,21,15,21,9.20
2014,03,21,15,22,9.20
2014,03,21,15,23,9.20
2014,03,21,15,24,9.20
2014,03,21,15,25,9.30
2014,03,21,15,26,9.40
2014,03,21,15,27,9.50
2014,03,21,15,28,9.70
2014,03,21,15,29,9.70
2014,03,21,15,30,9.70
2014,03,21,15,31,9.70
2014,03,21,15,32,9.80
2014,03,21,15,33,9.80
2014,03,21,15,34,9.80
2014,03,21,15,35,9.80
2014,03,21,15,36,9.90
2014,03,21,15,37,9.90
2014,03,21,15,38,9.90
2014,03,21,15,39,9.90
2014,03,21,15,40,9.90
2014,03,21,15,41,9.80
2014,03,21,15,42,9.80
2014,03,21,15,43,9.80
2014,03,21,15,44,9.70
2014,03,21,15,45,9.70
2014,03,21,15,46,9.70
2014,03,21,15,47,9.60
2014,03,21,15,48,9.50
2014,03,21,15,49,9.50
2014,03,21,15,50,9.50
2014,03,21,15,51,9.50
2014,03,21,15,52,9.50
2014,03,21,15,53,9.70
2014,03,21,15,54,9.70
2014,03,21,15,55,9.80
2014,03,21,15,56,9.80
2014,03,21,15,57,9.90
2014,03,21,15,58,9.90
2014,03,21,15,59,9.90
2014,03,21,16,00,9.90
2014,03,21,16,01,9.90
2014,03,21,16,02,9.90
2014,03,21,16,03,9.90
2014,03,21,16,04,9.80
2014,03,21,16,05,9.80
2014,03,21,16,06,9.80
2014,03,21,16,07,9.70
2014,03,21,16,08,9.60
2014,03,21,16,09,9.60
2014,03,21,16,10,9.50
2014,03,21,16,11,9.60
2014,03,21,16,12,9.60
2014,03,21,16,13,9.60
2014,03,21,16,14,9.60
2014,03,21,16,15,9.60
2014,03,21,16,16,9.50
2014,03,21,16,17,9.40
2014,03,21,16,18,9.30
2014,03,21,16,19,9.20
2014,03,21,16,20,9.20
2014,03,21,16,21,9.20
2014,03,21,16,22,9.30
2014,03,21,16,23,9.50
2014,03,21,16,24,9.50
2014,03,21,16,25,9.50
2014,03,21,16,26,9.60
2014,03,21,16,27,9.70
2014,03,21,16,28,9.70
2014,03,21,16,29,9.70
2014,03,21,16,30,9.70
2014,03,21,16,31,9.70
2014,03,21,16,32,9.60
2014,03,21,16,33,9.60
2014,03,21,16,34,9.60
2014,03,21,16,35,9.50
2014,03,21,16,36,9.50
2014,03,21,16,37,9.30
2014,03,21,16,38,9.20
2014,03,21,16,39,9.20
2014,03,21,16,40,9.20
2014,03,21,16,41,9.20
2014,03,21,16,42,9.20
2014,03,21,16,43,9.20
2014,03,21,16,44,9.20
2014,03,21,16,45,9.30
2014,03,21,16,46,9.20
2014,03,21,16,47,9.20
2014,03,21,16,48,9.20
2014,03,21,16,49,9.20
2014,03,21,16,50,9.20
2014,03,21,16,51,9.20
2014,03,21,16,52,9.20
2014,03,21,16,53,9.20
2014,03,21,16,54,9.20
2014,03,21,16,55,9.20
2014,03,21,16,56,9.20
2014,03,21,16,57,9.10
2014,03,21,16,58,9.10
2014,03,21,16,59,9.10
2014,03,21,17,00,9.10
2014,03,21,17,01,9.20
2014,03,21,17,02,9.30
2014,03,21,17,03,9.50
2014,03,21,17,04,9.60
2014,03,21,17,05,9.60
2014,03,21,17,06,9.60
2014,03,21,17,07,9.70
2014,03,21,17,08,9.70
2014,03,21,17,09,9.80
2014,03,21,17,10,9.90
2014,03,21,17,11,9.90
2014,03,21,17,12,9.90
2014,03,21,17,13,9.90
2014,03,21,17,14,9.90
2014,03,21,17,15,9.90
2014,03,21,17,16,9.70
2014,03,21,17,17,9.60
2014,03,21,17,18,9.50
2014,03,21,17,19,9.30
2014,03,21,17,20,9.20
2014,03,21,17,21,9.20
2014,03,21,17,22,9.20
2014,03,21,17,23,9.10
2014,03,21,17,24,9.00
2014,03,21,17,25,9.00
2014,03,21,17,26,9.00
2014,03,21,17,27,8.90
2014,03,21,17,28,8.90
2014,03,21,17,29,9.00
2014,03,21,17,30,9.00
2014,03,21,17,31,9.10
2014,03,21,17,32,9.10
2014,03,21,17,33,9.20
2014,03,21,17,34,9.20
2014,03,21,17,35,9.20
2014,03,21,17,36,9.20
2014,03,21,17,37,9.10
2014,03,21,17,38,9.10
2014,03,21,17,39,9.00
2014,03,21,17,40,8.90
2014,03,21,17,41,8.90
2014,03,21,17,42,8.80
2014,03,21,17,43,8.80
2014,03,21,17,44,8.70
2014,03,21,17,45,8.70
2014,03,21,17,46,8.70
2014,03,21,17,47,8.80
2014,03,21,17,48,8.80
2014,03,21,17,49,8.80
2014,03,21,17,50,8.80
2014,03,21,17,51,8.90
2014,03,21,17,52,8.90
2014,03,21,17,53,8.90
2014,03,21,17,54,8.90
2014,03,21,17,55,8.90
2014,03,21,17,56,8.90
2014,03,21,17,57,8.90
2014,03,21,17,58,8.80
2014,03,21,17,59,8.80
2014,03,21,18,00,8.80
2014,03,21,18,01,8.80
2014,03,21,18,02,8.70
2014,03,21,18,03,8.70
2014,03,21,18,04,8.70
2014,03,21,18,05,8.70
2014,03,21,18,06,8.70